Regional Weather Roundup
Issued by NWS

Home | Current Version | Previous Version | Text Only | Print | Product List | Glossary Off
Versions: 1 2 3 4 5 6 7 8 9 10 11 12 13 14 15 16 17 18 19 20 21 22 23 24 25 26 27 28 29 30 31 32 33 34 35 36 37 38 39 40 41 42 43 44 45 46 47 48 49 50

000
ASUS44 KMEG 122110
RWRTN
TENNESSEE HOURLY STATE WEATHER ROUNDUP
NATIONAL WEATHER SERVICE MEMPHIS TN
300 PM CST TUE DEC 12 2017

TNZ002-004-019-021-049-052-054-088>092-122200-
WEST TENNESSEE

CITY           SKY/WX    TMP DP  RH WIND       PRES   REMARKS
MEMPHIS INTL   MOSUNNY   48  23  37 N12       30.17R
NWS MEMPHIS      N/A     48 N/A N/A MISG        N/A
JACKSON        SUNNY     44  20  38 NW15      30.14F
DYERSBURG      MOSUNNY   43  17  35 NW10      30.16F
SOMERVILLE     SUNNY     46  21  36 NW13G20   30.14S
COVINGTON      SUNNY     45  21  39 NW12G17   30.16F
UNION CITY     SUNNY     39  12  33 N10G17    30.14F WCI  32
BOLIVAR        SUNNY     46  19  34 NW14G21   30.13S
PARIS          SUNNY     39  12  33 NW7G14    30.10F WCI  34
HUNTINGDON     SUNNY     41  19  42 NW8G14    30.11F
LEXINGTON      SUNNY     43  21  42 NW10G20   30.11R
SELMER         SUNNY     45  19  36 NW6G17    30.11R
SAVANNAH       SUNNY     46  23  39 NW9G16    30.10R
$$

TNZ008-025-027-028-033-062-065-066-122200-
NORTH MIDDLE TENNESSEE

CITY           SKY/WX    TMP DP  RH WIND       PRES   REMARKS
NASHVILLE      MOSUNNY   41  10  28 NW17G24   30.07S
PORTLAND       SUNNY     36  12  38 NW13G22   30.05R WCI  27
CLARKSVILLE    MOSUNNY   38   7  27 NW16      30.09F WCI  29
SMYRNA         SUNNY     41  17  38 NW10      30.07R
COOKEVILLE     MOSUNNY   37  18  44 NW9G18    29.99S WCI  31
GALLATIN       SUNNY     39  14  35 W10G23    30.09R WCI  32
CROSSVILLE     PTSUNNY   33  15  47 W16G30    29.94F WCI  23
$$

TNZ061-075-076-078-094-096-097-122200-
SOUTH MIDDLE TENNESSEE

CITY           SKY/WX    TMP DP  RH WIND       PRES   REMARKS
FAYETTEVILLE   SUNNY     45  18  33 NW16G26   30.01S
TULLAHOMA      SUNNY     43  18  36 NW15G23   30.00S
WINCHESTER       N/A     41  25  52 N12       30.00F
MCMINNVILLE    MOSUNNY   39  21  48 N16       30.00F WCI  30
COLUMBIA       SUNNY     43  12  28 W9        30.05R
SHELBYVILLE    SUNNY     43  19  39 NW17      30.03S
$$

TNZ017-018-042-046-047-122200-
NORTHEAST TENNESSEE

CITY           SKY/WX    TMP DP  RH WIND       PRES   REMARKS
TRI CITIES     PTSUNNY   34  21  59 W22G29    29.81R WCI  22
ELIZABETHTON   CLOUDY    36  21  55 W12G23    29.80R WCI  27
$$

TNZ012-013-036-069-073-074-122200-
CENTRAL EAST TENNESSEE

CITY           SKY/WX    TMP DP  RH WIND       PRES   REMARKS
KNOXVILLE      NOT AVBL
OAK RIDGE      PTSUNNY   39  19  44 W9G17     29.96R WCI  33
DOWNTOWN KNOXV PTSUNNY   41  19  42 NW10G21   29.95R
GATLINBURG     PTSUNNY   37  23  56 W14       29.92R WCI  29
MORRISTOWN     CLOUDY    37  16  41 W14G22    29.88R WCI  29
JACKSBORO      MOSUNNY   36  16  44 W8        29.96R WCI  29
$$

TNZ083-085-099-122200-
SOUTHEAST TENNESSEE

CITY           SKY/WX    TMP DP  RH WIND       PRES   REMARKS
CHATTANOOGA    MOSUNNY   44  20  38 NW18G25   29.98S
DAYTON         MOCLDY    41  23  48 W10G21    29.98F
$$

SKY/WX REPORTED AS FAIR MEANS FEW OR NO CLOUDS BELOW
12 THOUSAND FEET.





USA.gov is the U.S. government's official web portal to all federal, state and local government web resources and services.